Hourly Weather Adolfow

Today, 7 March, Sunday

Time Temperature Precipitation Wind Pressure Humidity
00:00 -3°C° 0 mm 6 mps 755 mmHg 77%
01:00 -3°C° 0 mm 6 mps 754 mmHg 79%
02:00 -3°C° 0 mm 7 mps 753 mmHg 80%
03:00 -2°C° 0 mm 7 mps 753 mmHg 81%
04:00 -2°C° 0 mm 8 mps 752 mmHg 83%
05:00 -2°C° 0 mm 8 mps 752 mmHg 83%
06:00 -2°C° 0 mm 8 mps 752 mmHg 84%
07:00 -3°C° 0 mm 9 mps 752 mmHg 85%
08:00 -3°C° 0.1 mm 9 mps 751 mmHg 84%
09:00 -3°C° 0.1 mm 9 mps 751 mmHg 83%
10:00 -3°C° 0.1 mm 9 mps 750 mmHg 81%
11:00 -3°C° 0 mm 9 mps 750 mmHg 77%
12:00 -1°C° 0 mm 9 mps 750 mmHg 73%
13:00 -1°C° 0 mm 9 mps 749 mmHg 69%
14:00 -1°C° 0 mm 8 mps 749 mmHg 69%
15:00 -1°C° 0 mm 8 mps 749 mmHg 70%
16:00 -1°C° 0 mm 8 mps 748 mmHg 70%
17:00 -2°C° 0 mm 7 mps 748 mmHg 73%
18:00 -2°C° 0 mm 7 mps 748 mmHg 76%
19:00 -3°C° 0 mm 6 mps 748 mmHg 79%
20:00 -3°C° 0.1 mm 6 mps 748 mmHg 82%
21:00 -3°C° 0.1 mm 6 mps 748 mmHg 85%
22:00 -3°C° 0.1 mm 6 mps 748 mmHg 88%
23:00 -4°C° 0.4 mm 5 mps 748 mmHg 87%

Tomorrow, 8 March, Monday

Time Temperature Precipitation Wind Pressure Humidity
00:00 -3°C° 0.4 mm 4 mps 748 mmHg 87%
01:00 -2°C° 0.4 mm 3 mps 749 mmHg 87%
02:00 -4°C° 0 mm 3 mps 749 mmHg 86%
03:00 -5°C° 0 mm 3 mps 748 mmHg 86%
04:00 -5°C° 0 mm 3 mps 748 mmHg 85%
05:00 -5°C° 0 mm 3 mps 749 mmHg 80%
06:00 -5°C° 0 mm 3 mps 749 mmHg 76%
07:00 -5°C° 0 mm 3 mps 750 mmHg 71%
08:00 -4°C° 0 mm 4 mps 750 mmHg 66%
09:00 -2°C° 0 mm 4 mps 751 mmHg 62%
10:00 -1°C° 0 mm 4 mps 751 mmHg 58%
11:00 -1°C° 0 mm 4 mps 751 mmHg 57%
12:00 0°C° 0 mm 4 mps 751 mmHg 56%
13:00 0°C° 0 mm 4 mps 752 mmHg 55%
14:00 0°C° 0 mm 4 mps 752 mmHg 56%
15:00 0°C° 0 mm 4 mps 751 mmHg 56%
16:00 0°C° 0 mm 4 mps 751 mmHg 57%
17:00 0°C° 0 mm 3 mps 752 mmHg 62%
18:00 -1°C° 0 mm 3 mps 752 mmHg 68%
19:00 -2°C° 0 mm 2 mps 752 mmHg 73%
20:00 -3°C° 0 mm 2 mps 753 mmHg 74%
21:00 -3°C° 0 mm 2 mps 753 mmHg 75%
22:00 -1°C° 0 mm 1 mps 753 mmHg 76%
23:00 -1°C° 0 mm 1 mps 753 mmHg 77%

Day after tomorrow, 9 March, Tuesday

Time Temperature Precipitation Wind Pressure Humidity
00:00 -1°C° 0 mm 1 mps 753 mmHg 78%
01:00 -1°C° 0 mm 1 mps 753 mmHg 78%
02:00 -2°C° 0 mm 0 mps 753 mmHg 78%
03:00 -2°C° 0 mm 0 mps 752 mmHg 78%
04:00 -2°C° 0 mm 0 mps 752 mmHg 77%
05:00 -2°C° 0 mm 0 mps 752 mmHg 76%
06:00 -1°C° 0 mm 1 mps 752 mmHg 75%
07:00 -1°C° 0 mm 1 mps 753 mmHg 74%
08:00 0°C° 0 mm 1 mps 753 mmHg 69%
09:00 +1°C° 0 mm 1 mps 753 mmHg 64%
10:00 +2°C° 0 mm 1 mps 753 mmHg 60%
11:00 +2°C° 0 mm 1 mps 753 mmHg 57%
12:00 +2°C° 0 mm 1 mps 752 mmHg 54%
13:00 +3°C° 0 mm 1 mps 752 mmHg 51%
14:00 +3°C° 0 mm 1 mps 752 mmHg 51%
15:00 +3°C° 0 mm 1 mps 752 mmHg 51%
16:00 +3°C° 0 mm 1 mps 751 mmHg 51%
17:00 +2°C° 0 mm 1 mps 751 mmHg 56%
18:00 +1°C° 0 mm 1 mps 752 mmHg 60%
19:00 -2°C° 0 mm 2 mps 752 mmHg 65%
20:00 -2°C° 0 mm 2 mps 752 mmHg 66%
21:00 -2°C° 0 mm 2 mps 752 mmHg 67%
22:00 -2°C° 0 mm 2 mps 752 mmHg 68%
23:00 -3°C° 0 mm 2 mps 752 mmHg 71%

10 March, Wednesday

Time Temperature Precipitation Wind Pressure Humidity
00:00 -1°C° 0 mm 1 mps 752 mmHg 73%
01:00 -1°C° 0 mm 1 mps 752 mmHg 75%
02:00 -1°C° 0 mm 1 mps 752 mmHg 75%
03:00 -1°C° 0 mm 1 mps 752 mmHg 76%
04:00 -1°C° 0 mm 1 mps 752 mmHg 76%
05:00 -1°C° 0 mm 1 mps 752 mmHg 75%
06:00 -1°C° 0 mm 1 mps 752 mmHg 74%
07:00 -1°C° 0 mm 1 mps 753 mmHg 73%
08:00 0°C° 0 mm 1 mps 753 mmHg 67%
09:00 +1°C° 0 mm 1 mps 753 mmHg 61%
10:00 +2°C° 0 mm 1 mps 754 mmHg 54%
11:00 +3°C° 0 mm 1 mps 754 mmHg 51%
12:00 +3°C° 0 mm 1 mps 753 mmHg 49%
13:00 +3°C° 0 mm 0 mps 753 mmHg 46%
14:00 +3°C° 0 mm 0 mps 753 mmHg 46%
15:00 +3°C° 0 mm 0 mps 753 mmHg 46%
16:00 +3°C° 0 mm 0 mps 753 mmHg 45%
17:00 +3°C° 0 mm 1 mps 753 mmHg 50%
18:00 +1°C° 0 mm 1 mps 753 mmHg 54%
19:00 -2°C° 0 mm 2 mps 753 mmHg 59%
20:00 -2°C° 0 mm 2 mps 753 mmHg 60%
21:00 -2°C° 0 mm 2 mps 753 mmHg 61%
22:00 -2°C° 0 mm 3 mps 753 mmHg 62%
23:00 -2°C° 0 mm 3 mps 753 mmHg 61%

11 March, Thursday

Time Temperature Precipitation Wind Pressure Humidity
00:00 -2°C° 0 mm 3 mps 752 mmHg 61%
01:00 -3°C° 0 mm 4 mps 752 mmHg 60%
02:00 -3°C° 0 mm 4 mps 751 mmHg 60%
03:00 -3°C° 0 mm 4 mps 751 mmHg 60%
04:00 -3°C° 0 mm 4 mps 750 mmHg 59%
05:00 -2°C° 0 mm 5 mps 749 mmHg 58%
06:00 -3°C° 0 mm 6 mps 749 mmHg 58%
07:00 -3°C° 0 mm 6 mps 748 mmHg 57%
08:00 -2°C° 0 mm 7 mps 747 mmHg 57%
09:00 -1°C° 0 mm 7 mps 746 mmHg 57%
10:00 0°C° 0 mm 8 mps 746 mmHg 56%
11:00 0°C° 0.4 mm 8 mps 745 mmHg 69%
12:00 0°C° 0.4 mm 8 mps 744 mmHg 81%
13:00 -1°C° 0.4 mm 9 mps 743 mmHg 93%
14:00 0°C° 1.1 mm 8 mps 742 mmHg 93%
15:00 0°C° 1.1 mm 8 mps 742 mmHg 92%
16:00 +2°C° 1.1 mm 7 mps 741 mmHg 91%
17:00 +2°C° 1.4 mm 7 mps 740 mmHg 91%
18:00 +2°C° 1.4 mm 8 mps 740 mmHg 91%
19:00 +2°C° 1.4 mm 8 mps 739 mmHg 91%
20:00 +4°C° 0.4 mm 8 mps 739 mmHg 91%
21:00 +4°C° 0.4 mm 8 mps 739 mmHg 90%
22:00 +4°C° 0.4 mm 7 mps 739 mmHg 90%
23:00 +4°C° 0.1 mm 7 mps 739 mmHg 89%

12 March, Friday

Time Temperature Precipitation Wind Pressure Humidity
00:00 +4°C° 0.1 mm 7 mps 740 mmHg 88%
01:00 +3°C° 0.1 mm 6 mps 740 mmHg 86%
02:00 +3°C° 0 mm 6 mps 740 mmHg 86%
03:00 +3°C° 0 mm 6 mps 740 mmHg 87%
04:00 +2°C° 0 mm 6 mps 740 mmHg 87%
05:00 +2°C° 0 mm 6 mps 740 mmHg 86%
06:00 +2°C° 0 mm 7 mps 741 mmHg 86%
07:00 +2°C° 0 mm 7 mps 741 mmHg 85%
08:00 +2°C° 0 mm 8 mps 741 mmHg 79%
09:00 +3°C° 0 mm 9 mps 742 mmHg 73%
10:00 +3°C° 0 mm 10 mps 742 mmHg 67%
11:00 +5°C° 0 mm 10 mps 743 mmHg 63%
12:00 +6°C° 0 mm 10 mps 743 mmHg 59%
13:00 +6°C° 0 mm 9 mps 743 mmHg 55%
14:00 +6°C° 0 mm 9 mps 743 mmHg 55%
15:00 +6°C° 0 mm 8 mps 743 mmHg 55%
16:00 +6°C° 0 mm 7 mps 743 mmHg 55%
17:00 +5°C° 0 mm 6 mps 744 mmHg 60%
18:00 +5°C° 0 mm 5 mps 744 mmHg 65%
19:00 +4°C° 0 mm 4 mps 744 mmHg 70%
20:00 +4°C° 0 mm 4 mps 744 mmHg 71%
21:00 +2°C° 0 mm 5 mps 745 mmHg 71%
22:00 +2°C° 0 mm 5 mps 745 mmHg 72%
23:00 +2°C° 0 mm 5 mps 745 mmHg 74%
Show more